Location: Alma
(38.7220°N, 88.9090°W)
Time: 14:33:52
(UTC-06:00)

Vanguard 2 - Pass Details

Date: 21 November 2019
Orbit: 553 x 2938 km, 32.9° (Epoch: 10 December)

Event Time Altitude Azimuth Distance (km) Brightness Sun altitude
Rises 04:39:12 0° 205° (SSW) 6,646 12.1 -24.2°
Reaches altitude 10° 04:45:24 10° 193° (SSW) 5,384 11.8 -23.0°
Maximum altitude 04:55:39 22° 151° (SSE) 3,833 11.5 -21.0°
Drops below altitude 10° 05:03:30 10° 106° (ESE) 4,033 12.4 -19.5°
Sets 05:07:12 0° 92° (E) 4,645 13.1 -18.8°
